Meteo Giornale » Osservazioni meteo Francia » Nizza

ore: 23:00 - Osservazioni Meteo Nizza
Lat. 43° 39' N Lon. 7° 12' E Alt. 4 metri s.l.m.

sereno Europe/Paris

11 °C

Sereno

Temp. 24 Ore

7 °C

15 °C

Nord/NOvest

13 Km/h

Dew point 5 °C

Umidità 66 %

Visibilità  10 Km

Il sole sorge alle ore 06:31

Il sole tramonta alle ore 20:27

Data e Ora Cielo e Fenomeni T °C DP °C Um. % Pres. hPa Vis. km Vento km/h
Oggi h: 23:00 sereno Sereno 11 5 66 1006 10 N/NO 13
Oggi h: 22:30 sereno Sereno 11 6 71 1005 10 NO 9.3
Oggi h: 22:00 sereno Sereno 12 5 62 1005 10 N 5.5
Oggi h: 21:30 sereno Sereno 12 5 62 1005 10 N 5.5
Oggi h: 21:00 sereno Sereno 13 4 54 1005 10 N 7.4
Oggi h: 20:30 sereno Sereno 14 5 54 1005 10 NE 11.1
Oggi h: 20:00 sereno Sereno 14 4 50 1005 10 E/NE 14.8
Oggi h: 19:30 poco_nuvoloso Poco Nuvoloso 14 5 54 1005 10 E/NE 13
Oggi h: 19:00 poco_nuvoloso Poco Nuvoloso 14 6 58 1005 10 E/NE 11.1
Oggi h: 18:30 poco_nuvoloso Poco Nuvoloso 14 6 58 1005 10 E 9.3
Oggi h: 18:00 nuvoloso Nuvoloso 15 5 51 1005 10 E/SE 7.4
Oggi h: 17:30 molto_nuvoloso Molto Nuvoloso 14 6 58 1006 10 S/SE 11.1
Oggi h: 17:00 molto_nuvoloso Molto Nuvoloso 15 7 58 1006 10 S 14.8
Oggi h: 16:30 molto_nuvoloso Molto Nuvoloso 15 6 54 1006 10 S/SO 20.3
Oggi h: 16:00 molto_nuvoloso Molto Nuvoloso 15 6 54 1006 10 S 16.7
Oggi h: 15:30 nuvoloso Nuvoloso 15 7 58 1006 10 S 16.7
Oggi h: 15:00 poco_nuvoloso Poco Nuvoloso 15 6 54 1006 10 S 16.7
Oggi h: 14:30 poco_nuvoloso Poco Nuvoloso 15 5 51 1007 10 S 16.7
Oggi h: 14:00 poco_nuvoloso Poco Nuvoloso 15 5 51 1007 10 S 13
Oggi h: 13:30 poco_nuvoloso Poco Nuvoloso 15 5 51 1007 10 S 13
Oggi h: 13:00 poco_nuvoloso Poco Nuvoloso 14 7 62 1007 10 S 11.1
Oggi h: 12:30 poco_nuvoloso Poco Nuvoloso 14 6 58 1007 10 S 9.3
Oggi h: 12:00 poco_nuvoloso Poco Nuvoloso 14 5 54 1007 10 S 9.3
Oggi h: 11:30 poco_nuvoloso Poco Nuvoloso 14 3 47 1007 10 S 9.3
Oggi h: 11:00 poco_nuvoloso Poco Nuvoloso 13 4 54 1007 10 S/SO 9.3
Oggi h: 10:30 sereno Sereno 13 3 50 1007 10 N 7.4
Oggi h: 10:00 sereno Sereno 13 2 47 1007 10 N 5.5
Oggi h: 09:30 sereno Sereno 12 3 54 1007 10 N/NO 11.1
Oggi h: 09:00 sereno Sereno 10 3 61 1007 10 N/NO 16.7
Oggi h: 08:30 sereno Sereno 9 3 66 1007 10 N/NO 16.7
Oggi h: 08:00 sereno Sereno 8 3 70 1007 10 N/NO 14.8
Oggi h: 07:30 sereno Sereno 8 3 70 1007 10 N/NO 16.7
Oggi h: 07:00 sereno Sereno 7 3 75 1007 10 N/NO 20.3
Oggi h: 06:30 sereno Sereno 7 3 75 1007 10 NO 20.3
Oggi h: 06:00 sereno Sereno 7 3 75 1006 10 N/NO 18.5
Oggi h: 05:30 sereno Sereno 8 3 70 1006 10 NO 20.3
Oggi h: 05:00 sereno Sereno 8 3 70 1006 10 NO 18.5
Oggi h: 04:30 sereno Sereno 8 4 75 1006 10 NO 20.3
Oggi h: 04:00 sereno Sereno 8 4 75 1006 10 NO 18.5
Oggi h: 03:30 sereno Sereno 8 4 75 1007 10 N 7.4
Oggi h: 03:00 sereno Sereno 8 5 81 1007 10 N 13
Oggi h: 02:30 sereno Sereno 8 5 81 1007 10 N 13
Oggi h: 02:00 molto_nuvoloso Molto Nuvoloso 8 5 81 1007 10 N 9.3
Oggi h: 01:30 molto_nuvoloso Molto Nuvoloso 8 6 87 1008 10 NO 20.3
Oggi h: 01:00 sereno Sereno 8 6 87 1008 10 N 16.7
Oggi h: 00:30 molto_nuvoloso Molto Nuvoloso 8 6 87 1007 10 N/NO 14.8
Oggi h: 00:00 sereno Sereno 8 6 87 1008 10 N/NO 13